Terminal Aerodrome Forecast
Issued by NWS Pueblo, CO

Home | Current Version | Previous Version | Text Only | Print | Product List | Glossary On
Versions: 1 2 3 4 5 6 7 8 9 10 11 12 13 14 15 16 17 18 19 20 21
000
FTUS45 KPUB 282337
TAFALS
TAF
KALS 282337Z 2900/2924 13015KT P6SM OVC090
     FM290100 05008KT 4SM -SHRA BR OVC020
     FM290300 04014KT 2SM -SHSN BR OVC010
     FM290800 03015G25KT 3SM -SHSN BR OVC020
     FM291600 36015G25KT P6SM FEW080=

USA.gov is the U.S. government's official web portal to all federal, state and local government web resources and services.